TimeMDT,TemperatureF,Dew PointF,Humidity,Sea Level PressureIn,VisibilityMPH,Wind Direction,Wind SpeedMPH,Gust SpeedMPH,PrecipitationIn,Events,Conditions,WindDirDegrees,DateUTC
12:53 AM,46.9,41.0,80,30.20,10.0,South,10.4,-,N/A,,Clear,170,2013-05-12 06:53:00
1:53 AM,50.0,44.1,80,30.17,10.0,SSW,10.4,-,N/A,,Clear,210,2013-05-12 07:53:00
2:53 AM,50.0,43.0,77,30.16,10.0,SSW,13.8,-,N/A,,Clear,210,2013-05-12 08:53:00
3:53 AM,48.0,42.1,80,30.13,10.0,SSW,13.8,-,N/A,,Clear,200,2013-05-12 09:53:00
4:53 AM,48.9,41.0,74,30.11,10.0,SW,15.0,-,N/A,,Clear,220,2013-05-12 10:53:00
5:53 AM,48.9,41.0,74,30.10,10.0,SW,16.1,-,N/A,,Clear,230,2013-05-12 11:53:00
6:53 AM,50.0,42.1,74,30.09,10.0,WSW,13.8,-,N/A,,Clear,250,2013-05-12 12:53:00
7:53 AM,57.9,44.1,60,30.09,10.0,West,12.7,-,N/A,,Clear,260,2013-05-12 13:53:00
8:53 AM,66.9,43.0,42,30.07,10.0,WNW,15.0,-,N/A,,Clear,290,2013-05-12 14:53:00
9:53 AM,73.0,39.0,29,30.04,10.0,NW,11.5,-,N/A,,Clear,320,2013-05-12 15:53:00
10:53 AM,77.0,37.0,24,30.05,10.0,NNW,15.0,21.9,N/A,,Clear,340,2013-05-12 16:53:00
11:53 AM,78.1,34.0,20,30.03,10.0,NNW,15.0,21.9,N/A,,Clear,330,2013-05-12 17:53:00
12:53 PM,79.0,34.0,20,30.04,10.0,North,12.7,25.3,N/A,,Clear,10,2013-05-12 18:53:00
1:53 PM,80.1,33.1,18,30.02,10.0,North,18.4,26.5,N/A,,Clear,10,2013-05-12 19:53:00
2:53 PM,80.1,32.0,17,30.01,10.0,NNE,13.8,29.9,N/A,,Partly Cloudy,20,2013-05-12 20:53:00
3:53 PM,80.1,34.0,19,30.00,10.0,NNE,13.8,19.6,N/A,,Partly Cloudy,20,2013-05-12 21:53:00
4:53 PM,80.1,33.1,18,29.99,10.0,NNE,11.5,-,N/A,,Clear,30,2013-05-12 22:53:00
5:53 PM,79.0,33.1,19,29.99,10.0,NNE,6.9,17.3,N/A,,Clear,20,2013-05-12 23:53:00
6:53 PM,75.9,33.1,21,29.99,10.0,NE,6.9,-,N/A,,Clear,50,2013-05-13 00:53:00
7:53 PM,64.0,36.0,35,30.00,10.0,East,6.9,-,N/A,,Clear,80,2013-05-13 01:53:00
8:53 PM,57.0,37.0,47,30.01,10.0,SE,8.1,-,N/A,,Clear,130,2013-05-13 02:53:00
9:53 PM,55.9,37.9,51,30.01,10.0,SSE,9.2,-,N/A,,Clear,150,2013-05-13 03:53:00
10:53 PM,55.9,39.0,53,30.00,10.0,South,10.4,-,N/A,,Clear,170,2013-05-13 04:53:00
11:53 PM,55.9,41.0,57,29.99,10.0,South,11.5,-,N/A,,Clear,180,2013-05-13 05:53:00